Location: Avoca
(45.7167°N, 74.7000°W)
Time: 12:34:51
(UTC+00:00)

BlueWalker 3 - Pass Details

Date: 30 November 2022
Orbit: 499 x 517 km, 53.2° (Epoch: 01 February)

Event Time Altitude Azimuth Distance (km) Brightness Sun altitude
Rises 22:58:37 0° 281° (W) 2,627 6.8 -17.2°
Reaches altitude 10° 23:01:03 10° 293° (WNW) 1,737 5.4 -17.7°
Maximum altitude 23:04:28 27° 354° (N) 996 3.3 -18.2°
Enters shadow 23:05:18 25° 16° (NNE) 1,054 3.3 -18.4°
